Regional Weather Roundup
Issued by NWS Mt. Holly, NJ

Home | Current Version | Previous Version | Text Only | Print | Product List | Glossary On
Versions: 1 2 3 4 5 6 7 8 9 10 11 12 13 14 15 16 17 18 19 20 21 22 23 24 25 26 27 28 29 30 31 32 33 34 35 36 37 38 39 40 41 42 43 44 45 46 47 48 49 50
000
ASUS41 KPHI 290311
RWRPHI

REGIONAL WEATHER ROUNDUP
NATIONAL WEATHER SERVICE MOUNT HOLLY NJ
1100 PM EDT SAT MAR 28 2015

NOTE:  "FAIR" INDICATES FEW OR NO CLOUDS BELOW 12,000 FEET WITH NO
SIGNIFICANT WEATHER AND/OR OBSTRUCTIONS TO VISIBILITY.

 * = STATION DOES NOT REPORT PRECIPITATION (E.G. RAIN, SNOW, ETC.)
        OR FOG.

NJZ015>026-290400-
SOUTHERN NEW JERSEY

CITY           SKY/WX    TMP DP  RH WIND       PRES   REMARKS
POMONA         CLEAR     27  14  58 NW10      30.13R WCI  17
RIO GRANDE*    MOCLDY    30  14  51 NW9G20    30.16R WCI  22
MILLVILLE      PTCLDY    29  19  66 NW10      30.15R WCI  20
WRIGHTSTOWN    FAIR      28   9  46 NW16      30.11R WCI  16
MOUNT HOLLY    PTCLDY    28   8  43 VRB7      30.15R WCI  21
TRENTON        CLOUDY    27   7  42 N10G18    30.13R WCI  17

$$
NJZ001>014-290400-
NORTHERN NEW JERSEY

CITY           SKY/WX    TMP DP  RH WIND       PRES   REMARKS
SUSSEX         CLOUDY    25  11  55 VRB5      30.13R WCI  19
ANDOVER*         N/A     23  10  57 N8        30.12R WCI  14
MORRISTOWN     CLOUDY    30  14  51 NW8G16    30.13R WCI  23
NEWARK         MOCLDY    30  13  49 N17G26    30.11R WCI  18
TETERBORO      CLOUDY    29  15  56 NW14      30.10R WCI  18
CALDWELL       CLOUDY    27  14  58 N9G23     30.12R WCI  18
SOMERVILLE     CLOUDY    27  10  49 NW13      30.13R WCI  16
ALLAIRE*       MOCLDY    28   7  40 NW15G22   30.10R WCI  17
TOMS RIVER*    CLOUDY    28  10  47 NW16G23   30.12R WCI  17

$$
PAZ043-044-047-054-055-060>062-066>071-290400-
EASTERN PENNSYLVANIA

CITY           SKY/WX    TMP DP  RH WIND       PRES   REMARKS
PHILADELPHIA   PTCLDY    30   6  36 NW22G28   30.17R WCI  17
NORTH PHILA    MOCLDY    29   6  38 N18       30.17R WCI  16
BLUE BELL      MOCLDY    30  10  43 N8        30.15R WCI  23
DOYLESTOWN     PTCLDY    23   7  50 NW9G18    30.14R WCI  13
QUAKERTOWN*    PTCLDY    25   7  46 N12G20    30.15R WCI  14
POTTSTOWN      CLOUDY    26   6  42 NW12G20   30.18R WCI  16
LANCASTER      PTCLDY    27   5  39 N13G25    30.18R WCI  16
COATESVILLE    FAIR      27   7  43 N8G17     30.15R WCI  18
READING        CLOUDY    27   4  37 N15G23    30.18R WCI  15
ALLENTOWN      CLOUDY    25   7  46 NW21G29   30.16R WCI  11
MOUNT POCONO   CLOUDY    17   3  54 NW20G28   30.03R WCI   1
HAZLETON       CLOUDY    21   3  45 NW17      30.12R WCI   7
WILKES BARRE   CLOUDY    23   4  44 N9G20     30.15R WCI  13

$$
DEZALL-MDZ008-012-015-019-020-290400-
DELAWARE AND EASTERN MARYLAND

CITY           SKY/WX    TMP DP  RH WIND       PRES   REMARKS
WILMINGTON     PTCLDY    29   9  43 NW13      30.17R WCI  19
DOVER          CLEAR     29  18  61 W10       30.17R WCI  20
GEORGETOWN     CLEAR     30  15  53 VRB7      30.18R WCI  23
EASTON         FAIR      32  15  49 NW10      30.24R WCI  23
PATUXENT       PTCLDY    31   9  39 NW18      30.22R WCI  19
OCEAN CITY     PTCLDY    29  16  58 NW8       30.19R WCI  21
WALLOPS ISLAND PTCLDY    31  12  45 N16G22    30.21R WCI  20
CAMBRIDGE      CLEAR     32  12  43 NW13      30.20S WCI  22
SALISBURY      CLEAR     30  11  45 NW8       30.19R WCI  22

$$
PAZ001-021-NYZ056-072-MDZ011-DCZ001-290400-
OTHER NEARBY LOCATIONS

CITY           SKY/WX    TMP DP  RH WIND       PRES   REMARKS
HARRISBURG     PTCLDY    28   3  34 N9        30.20R WCI  19
STATE COLLEGE  CLEAR     21   0  40 NW5       30.20R WCI  15
WILLIAMSPORT   CLEAR     23   2  40 W7        30.21R WCI  15
BINGHAMTON     CLEAR     15   4  61 W3        30.10R
NEW YORK CITY  CLOUDY    29  14  53 N7        30.12R WCI  22
BALTIMORE      PTCLDY    28   9  44 W8        30.20R WCI  20
WASHINGTON DC  PTCLDY    32   7  35 NW13G18   30.24R WCI  22

$$



USA.gov is the U.S. government's official web portal to all federal, state and local government web resources and services.